Back to catalog

COSMOS 1823 DEB

AliveLEO
NORAD 39823·DEBRIS·🇷🇺 Russia

Launched Feb 20, 1987 from Plesetsk Cosmodrome

Loading…

Next Passes (next 24 hours)

TLE

AgingSource: Space-Track

Epoch: Sep 12, 2026, 08:17 UTC

1 39823U 87020EX  26255.34532376  .00000197  00000-0  14868-2 0  9991
2 39823  73.7101  18.7480 0043646 259.9502 130.3771 12.45559245 38026

Track COSMOS 1823 DEB in real time with AllMySat

Download on the App Store